Saint Martin Island, Guadeloupe

7:02 PM AST on December 12, 2017 (GMT -0400)
Saint Martin Island

Weather History for 78866 - April, 2014

Change the Weather History Date:

Sunday, April 6, 2014

  Actual Average Record
Temperature  
Mean Temperature 80 °F -  
Max Temperature 84 °F 83 °F - ()
Min Temperature 77 °F 74 °F - ()
Cooling Degree Days 16    
Growing Degree Days 30 (Base 50)    
Moisture  
Dew Point 67 °F    
Average Humidity 62    
Maximum Humidity 74    
Minimum Humidity 39    
Precipitation  
Precipitation 0.00 in 0.10 in - ()
Sea Level Pressure  
Sea Level Pressure 30.06 in    
Wind  
Wind Speed 13 mph ()    
Max Wind Speed 18 mph    
Max Gust Speed -    
Visibility 6.3 miles    
Events Rain    
T = Trace of Precipitation, MM = Missing Value Source: Averaged Metar Reports

Daily Weather History Graph

Daily Weather History Graph

Search for Another Location

Airport or City:

Trip Planner

Search our weather history database for the weather conditions in past years. The results will help you decide how hot, cold, wet, or windy it might be!

Date:

Astronomy

Apr. 06, 2014 Rise Set
Actual Time 6:02 AM AST 6:27 PM AST
Civil Twilight 5:40 AM AST 6:49 PM AST
Nautical Twilight 5:15 AM AST 7:14 PM AST
Astronomical Twilight 4:49 AM AST 7:40 PM AST
Moon 11:26 AM AST (4/6) No Moon Set
Length of Visible Light 13h 08m
Length of Day
12h 24m
Waxing Crescent, 43% of the Moon is Illuminated
Apr 6
Waxing Crescent
Apr 7
First Quarter
Apr 15
Full
Apr 22
Last Quarter
Apr 29
New

Hourly Weather History & Observations

Time (AST) Temp. Heat Index Dew Point Humidity Pressure Visibility Wind Dir Wind Speed Gust Speed Precip Events Conditions
12:00 AM 78.8 °F - 68.0 °F 69% 30.06 in 6.2 mi ENE 15.0 mph - N/A   Mostly Cloudy
1:00 AM 78.8 °F - 68.0 °F 69% 30.06 in 6.2 mi East 13.8 mph - N/A   Mostly Cloudy
2:00 AM 78 °F - 67 °F 60% 30.05 in 25 mi East 15.0 mph - -   Partly Cloudy
2:00 AM 77.0 °F - 66.2 °F 69% 30.04 in 6.2 mi East 16.1 mph - N/A   Mostly Cloudy
3:00 AM 77.0 °F - 66.2 °F 69% 30.04 in 6.2 mi East 13.8 mph - N/A   Mostly Cloudy
4:00 AM 77.0 °F - 66.2 °F 69% 30.04 in 6.2 mi East 13.8 mph - N/A   Mostly Cloudy
5:00 AM 78 °F - 66 °F 59% 30.04 in 25 mi East 16.1 mph - -   Mostly Cloudy
5:00 AM 77.0 °F - 66.2 °F 69% 30.04 in 6.2 mi East 15.0 mph - N/A   Mostly Cloudy
6:00 AM 77.0 °F - 66.2 °F 69% 30.04 in 6.2 mi East 13.8 mph - N/A   Partly Cloudy
7:00 AM 78.8 °F - 68.0 °F 69% 30.06 in 6.2 mi ENE 17.3 mph - N/A   Partly Cloudy
8:00 AM 80 °F - 67 °F 57% 30.11 in 25 mi ESE 12.7 mph - -   Partly Cloudy
8:00 AM 78.8 °F - 68.0 °F 69% 30.09 in 6.2 mi East 12.7 mph - N/A   Scattered Clouds
9:00 AM 80.6 °F 83.2 °F 68.0 °F 65% 30.09 in 6.2 mi East 15.0 mph - N/A   Scattered Clouds
10:00 AM 82.4 °F 84.6 °F 66.2 °F 58% 30.09 in 6.2 mi East 16.1 mph - N/A   Partly Cloudy
11:00 AM 82 °F - 67 °F 51% 30.11 in 25 mi East 16.1 mph - -   Scattered Clouds
11:00 AM 82.4 °F 84.6 °F 66.2 °F 58% 30.09 in 6.2 mi East 16.1 mph - N/A   Partly Cloudy
12:00 PM 84.2 °F 86.6 °F 66.2 °F 55% 30.06 in 6.2 mi East 16.1 mph - N/A   Partly Cloudy
1:00 PM 82.4 °F 83.9 °F 64.4 °F 54% 30.06 in 6.2 mi East 18.4 mph - N/A   Partly Cloudy
2:00 PM 84 °F - 63 °F 39% 30.06 in 40 mi East 13.8 mph - -   Scattered Clouds
2:00 PM 84.2 °F 85.0 °F 62.6 °F 48% 30.04 in 6.2 mi East 13.8 mph - N/A   Partly Cloudy
3:00 PM 84.2 °F 85.0 °F 62.6 °F 48% 30.04 in 6.2 mi East 15.0 mph - N/A   Partly Cloudy
4:00 PM 82.4 °F 82.9 °F 60.8 °F 48% 30.01 in 6.2 mi East 12.7 mph - N/A   Partly Cloudy
5:00 PM 80 °F - 67 °F 55% 30.04 in 40 mi East 11.5 mph - -   Scattered Clouds
5:00 PM 80.6 °F 82.7 °F 66.2 °F 61% 30.01 in 6.2 mi East 11.5 mph - N/A   Partly Cloudy
6:00 PM 78.8 °F - 68.0 °F 69% 30.04 in 6.2 mi East 11.5 mph - N/A   Partly Cloudy
7:00 PM 78.8 °F - 68.0 °F 69% 30.04 in 6.2 mi East 10.4 mph - N/A   Partly Cloudy
8:00 PM 78 °F - 68 °F 65% 30.07 in 22 mi East 12.7 mph - -   Partly Cloudy
8:00 PM 78.8 °F - 68.0 °F 69% 30.06 in 6.2 mi East 12.7 mph - N/A   Scattered Clouds
9:00 PM 78.8 °F - 69.8 °F 74% 30.06 in 6.2 mi East 10.4 mph - N/A   Scattered Clouds
10:00 PM 78.8 °F - 68.0 °F 69% 30.06 in 6.2 mi East 11.5 mph - N/A   Scattered Clouds
11:00 PM 78 °F - 69 °F 68% 30.10 in 9 mi East 12.7 mph - - Rain Light Rain Showers
11:00 PM 78.8 °F - 69.8 °F 74% 30.09 in 6.2 mi East 12.7 mph - N/A Rain Light Rain Showers